Weather History for Ardmore Downtown, OK

Change the Weather History Date:

Saturday, May 11, 2013

  Actual Average (KADM) Record (KADM)
Temperature  
Mean Temperature 66 °F -  
Max Temperature 80 °F 78 °F 89 °F (2005)
Min Temperature 51 °F 59 °F 44 °F (2006)
Growing Degree Days 16 (Base 50)    
Moisture  
Dew Point 49 °F    
Average Humidity 59    
Maximum Humidity 94    
Minimum Humidity 26    
Precipitation  
Precipitation 0.00 in - - ()
Sea Level Pressure  
Sea Level Pressure 30.14 in    
Wind  
Wind Speed 4 mph (NNE)    
Max Wind Speed 14 mph    
Max Gust Speed 23 mph    
Visibility 10 miles    
Events Rain , Thunderstorm    
Averages and records for this station are not official NWS values.
T = Trace of Precipitation, MM = Missing Value Source: NWS Daily Summary

Daily Weather History Graph

Daily Weather History Graph

Search for Another Location

Airport:

Trip Planner

Search our weather history database for the weather conditions in past years. The results will help you decide how hot, cold, wet, or windy it might be!

Date:

Astronomy

May. 11, 2013 Rise Set
Actual Time 6:29 AM CDT 8:20 PM CDT
Civil Twilight 6:02 AM CDT 8:48 PM CDT
Nautical Twilight 5:29 AM CDT 9:21 PM CDT
Astronomical Twilight 4:53 AM CDT 9:56 PM CDT
Moon 7:39 AM CDT (5/11) 10:00 PM CDT (5/11)
Length of Visible Light 14h 45m
Length of Day
13h 50m
Waxing Crescent, 3% of the Moon is Illuminated
May 11
Waxing Crescent
May 17
First Quarter
May 24
Full
May 31
Last Quarter
Jun 8
New

Hourly Weather History & Observations

Time (CDT) Temp. Dew Point Humidity Pressure Visibility Wind Dir Wind Speed Gust Speed Precip Events Conditions
12:15 AM 64.4 °F 53.6 °F 68% 30.09 in 10.0 mi Calm Calm - N/A   Clear
12:35 AM 64.4 °F 53.6 °F 68% 30.09 in 10.0 mi North 3.5 mph - N/A   Clear
12:55 AM 62.6 °F 53.6 °F 72% 30.10 in 10.0 mi North 3.5 mph - N/A   Clear
1:15 AM 62.6 °F 53.6 °F 72% 30.09 in 10.0 mi North 3.5 mph - N/A   Clear
1:35 AM 62.6 °F 51.8 °F 68% 30.09 in 10.0 mi NNE 5.8 mph - N/A   Clear
1:55 AM 62.6 °F 51.8 °F 68% 30.09 in 10.0 mi NNE 4.6 mph - N/A   Clear
2:15 AM 60.8 °F 51.8 °F 72% 30.08 in 10.0 mi NNE 4.6 mph - N/A   Clear
2:35 AM 60.8 °F 51.8 °F 72% 30.09 in 10.0 mi North 3.5 mph - N/A   Clear
2:55 AM 59.0 °F 51.8 °F 77% 30.08 in 10.0 mi NNE 3.5 mph - N/A   Clear
3:15 AM 59.0 °F 51.8 °F 77% 30.09 in 10.0 mi North 3.5 mph - N/A   Clear
3:35 AM 59.0 °F 51.8 °F 77% 30.09 in 10.0 mi Calm Calm - N/A   Clear
3:55 AM 57.2 °F 51.8 °F 82% 30.10 in 10.0 mi Calm Calm - N/A   Clear
4:15 AM 55.4 °F 51.8 °F 88% 30.11 in 10.0 mi Calm Calm - N/A   Clear
4:35 AM 53.6 °F 50.0 °F 88% 30.11 in 10.0 mi Calm Calm - N/A   Clear
4:55 AM 51.8 °F 50.0 °F 94% 30.11 in 10.0 mi Calm Calm - N/A   Clear
5:15 AM 51.8 °F 50.0 °F 94% 30.11 in 10.0 mi Calm Calm - N/A   Clear
5:35 AM 51.8 °F 50.0 °F 94% 30.12 in 10.0 mi Calm Calm - N/A   Clear
5:55 AM 53.6 °F 50.0 °F 88% 30.12 in 10.0 mi Calm Calm - N/A   Clear
6:15 AM 53.6 °F 50.0 °F 88% 30.13 in 10.0 mi Calm Calm - N/A   Clear
6:35 AM 51.8 °F 50.0 °F 94% 30.14 in 10.0 mi Calm Calm - N/A   Clear
6:55 AM 51.8 °F 50.0 °F 94% 30.15 in 10.0 mi Calm Calm - N/A   Clear
7:15 AM 53.6 °F 51.8 °F 94% 30.15 in 10.0 mi Calm Calm - N/A   Clear
7:35 AM 55.4 °F 51.8 °F 88% 30.15 in 10.0 mi NW 3.5 mph - N/A   Clear
7:55 AM 57.2 °F 51.8 °F 82% 30.15 in 10.0 mi Calm Calm - N/A   Clear
8:15 AM 60.8 °F 51.8 °F 72% 30.15 in 10.0 mi Calm Calm - N/A   Clear
8:35 AM 62.6 °F 51.8 °F 68% 30.17 in 10.0 mi North 3.5 mph - N/A   Clear
8:55 AM 62.6 °F 51.8 °F 68% 30.17 in 10.0 mi Calm Calm - N/A   Clear
9:15 AM 64.4 °F 50.0 °F 59% 30.17 in 10.0 mi NE 5.8 mph - N/A   Clear
9:35 AM 66.2 °F 50.0 °F 56% 30.17 in 10.0 mi NE 6.9 mph - N/A   Clear
9:55 AM 68.0 °F 50.0 °F 52% 30.17 in 10.0 mi NE 3.5 mph - N/A   Clear
10:15 AM 69.8 °F 50.0 °F 49% 30.17 in 10.0 mi NNE 5.8 mph - N/A   Clear
10:35 AM 69.8 °F 51.8 °F 53% 30.16 in 10.0 mi Calm Calm - N/A   Clear
10:55 AM 71.6 °F 48.2 °F 43% 30.16 in 10.0 mi North 5.8 mph - N/A   Clear
11:15 AM 71.6 °F 46.4 °F 41% 30.17 in 10.0 mi NNE 6.9 mph - N/A   Clear
11:35 AM 73.4 °F 46.4 °F 38% 30.17 in 10.0 mi NE 10.4 mph 16.1 mph N/A   Clear
11:55 AM 73.4 °F 44.6 °F 36% 30.17 in 10.0 mi NNE 10.4 mph 18.4 mph N/A   Clear
12:15 PM 73.4 °F 46.4 °F 38% 30.16 in 10.0 mi ENE 11.5 mph 18.4 mph N/A   Clear
12:35 PM 75.2 °F 44.6 °F 34% 30.15 in 10.0 mi NNE 6.9 mph 18.4 mph N/A   Clear
12:55 PM 77.0 °F 42.8 °F 29% 30.15 in 10.0 mi NNE 12.7 mph 20.7 mph N/A   Scattered Clouds
1:15 PM 77.0 °F 42.8 °F 29% 30.15 in 10.0 mi NNE 11.5 mph 17.3 mph N/A   Scattered Clouds
1:35 PM 77.0 °F 41.0 °F 28% 30.15 in 10.0 mi NNE 10.4 mph 23.0 mph N/A   Scattered Clouds
1:55 PM 78.8 °F 42.8 °F 28% 30.15 in 10.0 mi NE 13.8 mph 17.3 mph N/A   Scattered Clouds
2:15 PM 77.0 °F 42.8 °F 29% 30.15 in 10.0 mi NE 11.5 mph 18.4 mph N/A   Scattered Clouds
2:35 PM 77.0 °F 42.8 °F 29% 30.14 in 10.0 mi NNE 10.4 mph - N/A   Mostly Cloudy
2:55 PM 78.8 °F 42.8 °F 28% 30.14 in 10.0 mi North 9.2 mph 19.6 mph N/A   Mostly Cloudy
3:15 PM 78.8 °F 42.8 °F 28% 30.13 in 10.0 mi NNE 9.2 mph - N/A   Scattered Clouds
3:35 PM 78.8 °F 42.8 °F 28% 30.12 in 10.0 mi NNE 8.1 mph 16.1 mph N/A   Clear
3:55 PM 78.8 °F 41.0 °F 26% 30.12 in 10.0 mi NNE 6.9 mph - N/A   Scattered Clouds
4:15 PM 78.8 °F 41.0 °F 26% 30.11 in 10.0 mi NE 10.4 mph 17.3 mph N/A   Clear
4:35 PM 80.6 °F 42.8 °F 26% 30.11 in 10.0 mi NE 10.4 mph 16.1 mph N/A   Clear
4:55 PM 80.6 °F 42.8 °F 26% 30.11 in 10.0 mi NNE 6.9 mph - N/A   Clear
5:15 PM 78.8 °F 42.8 °F 28% 30.11 in 10.0 mi ENE 8.1 mph 17.3 mph N/A   Clear
5:35 PM 80.6 °F 42.8 °F 26% 30.11 in 10.0 mi ENE 12.7 mph 17.3 mph N/A   Scattered Clouds
5:55 PM 78.8 °F 42.8 °F 28% 30.10 in 10.0 mi ENE 10.4 mph - N/A   Scattered Clouds
6:15 PM 78.8 °F 42.8 °F 28% 30.10 in 10.0 mi NNE 5.8 mph - N/A   Clear
6:35 PM 78.8 °F 42.8 °F 28% 30.10 in 10.0 mi ENE 9.2 mph - N/A Thunderstorm Scattered Clouds
6:55 PM 77.0 °F 42.8 °F 29% 30.11 in 10.0 mi NE 8.1 mph - N/A   Overcast
7:15 PM 69.8 °F 53.6 °F 56% 30.14 in 5.0 mi North 10.4 mph 20.7 mph N/A Rain Heavy Rain
7:35 PM 64.4 °F 55.4 °F 73% 30.14 in 10.0 mi North 6.9 mph - N/A Rain Light Rain
7:55 PM 64.4 °F 55.4 °F 73% 30.15 in 10.0 mi NNE 4.6 mph - N/A   Mostly Cloudy
8:15 PM 64.4 °F 55.4 °F 73% 30.15 in 10.0 mi North 3.5 mph - N/A   Scattered Clouds
8:35 PM 62.6 °F 55.4 °F 77% 30.17 in 10.0 mi Calm Calm - N/A   Clear
8:55 PM 62.6 °F 55.4 °F 77% 30.17 in 10.0 mi NE 3.5 mph - N/A   Clear
9:15 PM 62.6 °F 53.6 °F 72% 30.18 in 10.0 mi NNE 3.5 mph - N/A   Clear
9:35 PM 60.8 °F 55.4 °F 82% 30.19 in 10.0 mi Calm Calm - N/A   Clear
9:55 PM 60.8 °F 53.6 °F 77% 30.19 in 10.0 mi NNE 3.5 mph - N/A   Clear
10:35 PM 57.2 °F 53.6 °F 88% 30.21 in 10.0 mi Calm Calm - N/A   Clear
11:15 PM 60.8 °F 53.6 °F 77% 30.22 in 10.0 mi NNE 3.5 mph - N/A   Clear
11:35 PM 60.8 °F 51.8 °F 72% 30.22 in 10.0 mi NNE 3.5 mph - N/A   Clear
11:55 PM 60.8 °F 51.8 °F 72% 30.23 in 10.0 mi NE 3.5 mph - N/A   Clear